Location: Carrigahorig
(53.0625°N, 8.1439°W)
Time: 03:02:16
(UTC+00:00)

Cosmos 1271 Rocket - Pass Details

Date: 15 May 2026
Orbit: 421 x 447 km, 81.2° (Epoch: 8 June)

Event Time Altitude Azimuth Distance (km) Brightness Sun altitude
Exits shadow 23:39:44 45° 194° (SSW) 612 2.6 -17.1°
Maximum altitude 23:40:41 89° 273° (W) 446 2.3 -17.1°
Drops below altitude 10° 23:44:05 10° 13° (NNE) 1,554 6.1 -17.2°
Sets 23:46:08 0° 14° (NNE) 2,422 7.3 -17.3°
